SCP
-0 0 0 0 0 0 0 0 0 0 0 0 0 0 0 0 0 -0 0 0 0 0 0 0 -0 -0 -0 -0 -0 -0 -0 0 0 -0 -0 -0 -0 0 0 -0 0 -0 -0
-0 0 0 0 0 0 0 0 0 0 0 0 0 0 0 0 0 0 0 0 0 0 0 0 0 0 0 0 0 -0 -0 -0 0 -0 -0 -0 -0 -0 -0 -0 -0 -0 -0
-0 -0 -0 0 -0 -0 -0 0 0 0 0 0 0 0 0 0 0 0 0 0 0 0 0 0 0 0 0 0 0 0 0 0 0 -0 0 -0 -0 -0 -0 -0 -0 -0 -0
-0 -0 -0 -0 -0 -0 -0 -0 -0 0 0 0 0 0 0 0 0 0 0 0 0 0 0 0 0 0 0 0 0 0 0 0 0 0 0 -0 -0 -0 -0 -0 -0 -0 -0
-0 -0 -0 -0 -0 -0 -0 -0 -0 0 0 0 0 0 0 0 0 0 0 0 0 0 0 0 0 0 0 0 0 0 0 0 0 0 0 0 -0 -0 -0 -0 -0 -0 -0
-0 -0 -0 -0 -0 -0 -0 -0 -0 0 0 0 0 0 0 0 0 0 0 0 0 0 0 0 0 0 0 0 0 0 0 0 0 0 0 0 0 -1 -0 -0 -0 -0 -0
-0 -0 -0 -0 0 -0 0 0 0 0 0 0 0 0 0 0 0 0 0 0 -0 0 0 0 0 0 0 0 0 0 0 0 0 0 0 0 0 -1 -1 -0 -0 0 0
-0 -0 -0 0 0 0 0 0 0 0 0 0 0 0 0 0 0 0 0 0 0 0 0 0 0 0 0 0 0 0 0 0 -0 -0 0 -0 0 -1 -1 -0 -0 0 0
-0 -0 0 0 0 0 0 0 0 0 0 0 0 0 0 0 0 0 0 0 0 0 0 0 0 0 0 0 0 0 -0 0 0 -0 -0 0 -1 -1 -1 0 0 0 0
-0 -0 -0 0 0 -0 -0 0 0 0 0 0 0 0 0 0 0 0 0 0 0 0 0 0 0 0 0 0 -0 -0 -0 -0 0 -0 -0 0 -0 0 0 0 1 1 1
-0 -0 -0 0 0 0 0 0 0 0 0 0 0 0 0 1 1 1 1 0 0 0 0 0 0 0 0 -0 -0 -1 -0 0 0 0 0 0 0 0 0 0 0 0 0
0 0 0 0 0 0 0 0 0 0 0 0 0 1 0 0 0 -0 1 0 0 0 0 0 -0 0 0 0 0 0 1 -0 0 0 0 0 0 0 0 0 0 0 0
0 0 0 0 0 0 0 0 0 0 0 0 0 0 0 -0 0 0 1 0 0 0 0 0 0 0 0 0 0 0 0 0 0 0 0 0 0 0 0 1 1 0 0
0 0 0 -0 0 -0 0 0 0 0 0 0 1 1 0 0 1 1 0 0 0 0 0 0 0 0 0 0 0 0 -0 -0 -0 0 0 0 0 0 0 1 1 1 0
0 -0 -0 -0 0 -0 0 0 0 0 0 0 1 0 0 0 0 1 0 0 0 0 0 0 0 0 0 0 0 0 0 0 0 0 0 0 0 1 0 1 1 1 1
0 0 -0 -0 0 0 0 -0 0 1 0 0 0 -0 0 0 0 0 1 0 0 0 0 0 1 1 0 1 1 0 1 0 0 0 0 0 1 1 0 0 0 1 0
0 0 -0 -0 -0 0 -0 0 0 0 0 0 0 0 0 0 0 0 0 0 0 -0 0 0 1 0 0 0 1 1 1 1 0 1 1 0 0 0 0 0 0 0 0
-0 -0 0 -0 -0 -0 0 0 0 0 0 0 0 0 0 0 0 0 0 0 0 0 0 1 0 0 0 0 1 2 1 0 0 1 1 0 0 0 0 0 0 0 0
-0 -0 -0 -0 0 0 -0 0 0 0 0 0 -0 -0 -0 -0 0 -0 -0 0 1 1 1 0 0 0 1 1 0 1 1 1 1 0 0 0 0 0 0 0 0 0 0
-0 -0 0 -0 0 0 -0 0 0 0 0 0 0 0 -0 0 0 0 0 0 0 0 -0 1 1 1 1 1 0 1 1 1 1 1 1 0 0 0 0 0 0 0 0
-0 -0 -0 0 -0 0 0 -0 -0 -0 -0 -0 -0 -0 0 0 0 0 0 -0 -0 -0 1 1 1 0 1 0 0 0 2 2 1 0 0 0 0 0 0 0 0 0 0
-0 -0 -0 -0 -0 0 0 0 -0 0 -0 -0 -0 -0 0 0 0 0 -0 0 0 1 0 1 1 1 0 1 0 0 1 1 1 1 1 0 0 0 0 0 0 0 0
-0 -0 -0 -0 -0 0 0 -0 -0 -0 -0 0 -0 0 0 0 0 0 0 1 1 0 0 1 0 0 1 1 1 0 0 0 0 1 1 1 0 0 0 0 0 0 0
-0 -0 -0 -0 -0 0 0 0 -0 -0 -0 -0 0 0 0 0 0 0 0 0 0 1 0 0 0 1 1 1 0 0 0 0 0 0 1 2 1 0 0 0 0 0 0
-0 -0 -1 -0 -0 -0 0 0 0 -0 -0 -0 -0 -0 0 0 0 0 0 0 0 0 0 1 0 0 1 1 1 0 0 0 1 0 0 0 1 0 0 0 0 0 0
-0 -0 -0 -1 -0 -0 -0 0 0 0 0 -0 -0 -0 0 0 0 0 0 0 0 0 0 0 1 1 1 1 0 0 0 0 0 0 0 0 0 0 0 0 0 0 0
Wind_Speed_500mb
18 24 23 22 21 22 19 19 19 19 18 17 17 18 19 18 16 16 17 18 18 19 22 21 21 19 17 12 11 9 5 4 6 7 11 14 12 12 17 22 20 12 10
26 26 24 23 23 20 20 20 21 19 18 21 21 19 18 17 18 16 16 15 15 13 13 15 16 16 16 15 13 12 9 7 7 11 12 17 16 11 10 16 13 14 9
31 24 23 22 21 20 19 19 18 18 22 21 20 19 16 16 14 14 13 14 14 12 9 9 11 14 13 10 9 9 8 7 8 12 16 8 3 7 5 10 10 9 8
30 28 21 22 22 20 20 20 20 22 22 22 20 22 24 22 20 18 17 16 14 10 6 6 7 9 9 12 10 6 3 2 6 12 20 4 4 5 6 5 5 5 8
32 30 15 20 21 20 19 21 21 21 22 22 23 23 21 21 19 17 15 12 7 3 3 4 5 7 11 11 12 10 5 3 2 9 15 8 9 11 6 5 5 6 8
30 24 20 23 20 20 19 18 19 18 20 20 19 19 19 19 18 17 16 13 9 6 4 4 7 10 11 14 15 12 11 9 5 8 5 7 10 17 15 14 12 8 13
41 27 23 24 23 23 19 16 19 18 18 18 17 19 19 18 16 19 19 21 16 5 4 4 8 9 12 12 15 14 8 10 4 7 13 12 17 20 15 18 16 16 16
40 32 28 24 23 22 20 20 22 20 19 19 20 20 19 19 15 18 19 22 25 27 18 8 7 8 8 9 17 15 14 9 3 14 15 13 14 14 18 25 22 18 19
37 31 25 26 25 22 21 22 22 22 22 20 20 23 28 28 23 20 21 23 26 25 22 17 12 9 8 13 24 22 20 17 11 10 31 16 19 13 16 25 26 22 19
29 31 23 25 27 22 24 24 26 25 22 22 28 24 24 25 21 21 17 23 22 21 22 21 19 17 15 16 25 29 22 8 9 12 14 14 9 15 27 28 21 25 24
38 26 22 23 20 9 25 32 32 28 25 25 27 25 23 17 12 16 22 24 32 27 30 30 29 27 26 23 22 26 20 13 13 18 1 14 17 24 33 29 23 23 24
27 30 24 26 30 26 23 31 26 20 20 16 11 19 14 13 4 13 7 23 23 31 24 26 25 25 16 27 26 26 20 27 12 11 14 16 19 28 34 26 22 22 26
29 32 29 25 29 30 18 18 15 13 14 17 18 15 14 15 32 23 16 8 17 18 26 26 13 22 22 15 21 31 25 16 16 21 8 16 24 29 24 25 26 25 27
30 28 30 27 25 27 21 18 18 17 8 15 12 11 14 19 24 22 3 9 16 19 12 14 20 18 23 18 16 20 21 25 22 17 13 18 24 25 22 19 19 23 26
31 29 29 34 23 34 24 22 11 14 13 8 9 19 10 8 6 1 19 21 20 23 16 18 21 15 23 10 16 6 17 12 18 17 20 22 23 24 31 23 12 14 19
30 30 25 25 33 40 17 30 22 9 16 7 11 19 13 9 14 14 19 24 13 12 13 16 27 21 27 19 5 14 16 19 18 23 22 25 23 21 28 21 7 7 9
33 31 26 20 29 34 23 31 12 6 8 3 7 11 14 16 12 15 15 19 22 7 17 29 28 31 27 25 9 11 21 19 13 9 12 19 24 26 26 16 17 15 15
35 34 27 25 25 27 18 19 11 9 3 4 8 9 14 17 24 11 21 15 9 13 13 23 25 18 28 9 19 5 16 17 15 12 14 22 23 20 21 12 18 18 22
38 36 34 32 22 25 20 11 8 5 9 5 13 11 9 6 16 19 19 26 26 29 17 33 21 21 15 23 30 9 7 15 11 6 11 8 13 19 17 17 16 21 18
35 37 37 27 27 26 12 22 13 6 3 4 8 11 16 12 15 22 27 20 19 25 26 24 21 25 33 15 20 9 1 8 3 5 6 2 9 12 12 16 19 21 25
34 36 37 36 34 35 21 26 13 18 6 8 12 13 6 2 9 19 15 24 28 21 18 23 30 18 31 29 23 15 18 8 7 4 7 10 10 9 11 7 8 21 30
38 37 38 37 34 31 27 28 19 17 17 17 10 6 7 3 5 10 16 15 22 27 25 28 27 19 18 27 33 29 12 9 5 6 9 5 9 4 7 4 23 20 16
44 38 38 38 32 32 24 22 25 31 21 22 22 10 4 1 4 10 11 19 20 19 29 25 23 19 19 29 29 25 17 16 27 17 19 7 11 9 5 16 23 22 25
49 39 36 37 35 29 40 24 19 23 17 12 10 9 5 10 4 1 12 17 16 20 27 20 21 17 21 18 16 20 25 26 14 19 28 26 26 5 10 7 6 18 17
47 47 45 37 38 31 34 33 26 31 18 19 15 17 11 12 5 6 10 15 18 19 24 23 20 22 21 20 11 21 16 12 13 23 34 32 33 16 6 5 7 8 21
50 48 47 43 40 39 36 33 36 25 25 21 20 15 5 17 7 14 4 13 10 23 26 25 19 23 26 29 16 9 16 17 24 24 29 33 31 18 19 8 6 8 16
Wind_Direction_500mb
149 143 124 106 93 93 91 93 92 86 82 80 86 89 89 81 85 83 78 75 79 84 78 70 68 62 60 65 58 57 79 95 103 78 86 92 97 119 130 131 122 131 111
153 142 125 112 103 99 105 97 92 88 91 82 85 85 83 84 88 83 74 66 81 88 87 65 62 57 46 46 54 59 78 94 86 84 98 91 88 108 144 152 142 155 116
135 136 122 115 109 111 99 91 96 84 85 86 86 83 85 77 76 75 73 76 83 88 86 60 44 31 32 33 44 53 57 75 98 107 110 122 65 70 150 186 168 164 145
137 130 129 120 112 110 105 98 98 97 95 90 93 87 83 80 82 84 86 86 88 96 91 50 26 12 9 8 11 27 52 124 118 120 105 109 347 84 61 232 184 175 165
134 143 132 122 115 115 107 108 107 102 99 93 91 93 89 83 77 72 67 64 60 43 3 349 348 3 7 1 352 344 336 315 204 140 110 146 199 278 259 317 277 218 198
135 149 147 125 119 119 119 111 113 109 101 98 95 89 83 74 66 58 47 30 1 322 300 316 332 342 345 347 340 321 313 305 273 164 108 246 199 248 286 300 270 232 217
140 144 134 127 117 119 118 111 116 114 104 99 93 86 80 71 57 55 50 42 27 357 257 286 327 334 341 352 7 360 303 270 321 86 210 240 240 280 265 293 277 255 234
121 130 137 127 125 117 111 116 122 115 107 98 88 77 64 61 68 69 59 52 52 64 78 67 25 359 356 6 352 8 16 7 269 303 291 209 233 274 301 294 275 260 253
122 130 126 129 125 117 114 119 115 106 98 90 83 82 71 66 69 63 59 55 52 54 56 50 39 27 17 24 21 8 6 11 22 256 255 277 244 257 282 294 267 257 257
123 128 138 115 88 101 115 112 107 100 95 93 83 75 71 55 36 27 31 31 36 44 42 38 33 33 32 28 20 11 9 357 276 357 186 235 266 278 289 284 271 253 255
123 129 129 118 123 124 121 112 104 96 92 82 80 59 50 37 9 350 31 45 51 45 35 40 44 45 29 8 354 348 350 348 342 278 238 218 261 279 297 280 266 260 255
141 139 143 139 154 117 134 116 89 87 93 79 98 49 130 56 106 178 359 34 37 38 24 18 26 19 12 6 337 327 315 317 359 171 241 266 281 296 298 288 274 266 261
150 143 146 154 131 150 148 107 135 68 91 88 80 87 57 79 59 51 19 31 20 34 40 2 12 6 349 348 14 342 337 338 296 347 284 287 313 322 305 286 273 267 266
150 142 150 145 147 168 151 154 143 151 131 121 8 45 3 64 19 40 326 6 15 32 22 24 2 342 349 347 4 355 354 31 16 10 24 338 337 344 341 307 274 262 264
147 150 159 169 150 160 151 160 151 160 76 146 112 15 106 87 54 334 66 63 37 38 37 357 30 354 337 356 353 341 345 48 19 23 354 347 341 347 351 343 310 281 279
154 158 165 174 172 157 137 176 156 93 85 29 125 30 45 20 20 39 30 8 42 335 358 10 341 353 336 324 358 11 3 347 359 334 348 354 343 350 6 354 6 12 4
162 163 160 172 160 158 167 163 140 235 179 65 257 349 32 9 71 15 14 39 5 355 26 10 6 352 7 9 7 21 17 31 37 351 351 2 359 11 19 44 53 41 21
162 167 159 165 175 165 146 141 191 262 27 61 320 86 27 22 354 29 4 353 351 20 21 10 356 345 355 3 298 353 39 47 58 63 32 4 348 349 359 15 22 19 5
166 168 153 177 173 151 177 149 122 218 154 74 341 76 24 38 334 325 94 30 20 12 20 349 355 348 333 357 347 268 50 65 84 289 324 347 305 352 350 352 353 352 358
169 171 161 172 166 160 207 160 170 203 116 185 245 289 357 26 321 359 21 11 7 353 339 339 4 352 352 3 342 263 243 86 244 124 80 1 114 348 344 355 349 345 348
167 169 176 169 185 176 175 156 157 195 151 227 263 268 73 310 356 4 12 7 357 343 6 9 1 3 20 348 348 343 266 157 153 216 177 238 313 205 254 328 9 345 342
176 181 182 181 198 177 170 175 197 218 196 188 114 333 296 339 10 3 0 359 20 3 358 358 5 16 24 358 2 359 17 188 73 231 269 265 341 62 265 340 334 8 351
183 190 191 190 202 177 173 192 219 205 215 213 235 257 221 321 34 326 349 349 30 16 350 350 355 6 21 23 23 22 7 0 353 2 315 216 293 156 251 332 320 354 326
184 193 203 195 204 188 176 193 199 204 206 230 246 184 154 278 278 308 347 342 29 21 348 4 11 32 13 13 4 22 4 344 323 336 343 306 314 226 221 332 288 342 311
192 190 202 212 203 199 192 182 216 217 208 238 201 253 286 237 94 129 317 350 6 347 357 4 4 26 14 18 21 34 355 356 8 351 347 348 342 266 265 63 229 265 289
194 195 195 213 212 198 217 203 199 216 204 208 221 241 237 258 207 201 286 8 346 352 351 356 8 12 15 9 20 39 1 350 333 352 344 344 341 342 283 258 251 267 307
Wind_Speed_850mb
18 24 23 22 21 22 19 19 19 19 18 17 17 18 19 18 16 16 17 18 18 19 22 21 21 19 17 12 11 9 5 4 6 7 11 14 12 12 17 22 20 12 10
26 26 24 23 23 20 20 20 21 19 18 21 21 19 18 17 18 16 16 15 15 13 13 15 16 16 16 15 13 12 9 7 7 11 12 17 16 11 10 16 13 14 9
31 24 23 22 21 20 19 19 18 18 22 21 20 19 16 16 14 14 13 14 14 12 9 9 11 14 13 10 9 9 8 7 8 12 16 8 3 7 5 10 10 9 8
30 28 21 22 22 20 20 20 20 22 22 22 20 22 24 22 20 18 17 16 14 10 6 6 7 9 9 12 10 6 3 2 6 12 20 4 4 5 6 5 5 5 8
32 30 15 20 21 20 19 21 21 21 22 22 23 23 21 21 19 17 15 12 7 3 3 4 5 7 11 11 12 10 5 3 2 9 15 8 9 11 6 5 5 6 8
30 24 20 23 20 20 19 18 19 18 20 20 19 19 19 19 18 17 16 13 9 6 4 4 7 10 11 14 15 12 11 9 5 8 5 7 10 17 15 14 12 8 13
41 27 23 24 23 23 19 16 19 18 18 18 17 19 19 18 16 19 19 21 16 5 4 4 8 9 12 12 15 14 8 10 4 7 13 12 17 20 15 18 16 16 16
40 32 28 24 23 22 20 20 22 20 19 19 20 20 19 19 15 18 19 22 25 27 18 8 7 8 8 9 17 15 14 9 3 14 15 13 14 14 18 25 22 18 19
37 31 25 26 25 22 21 22 22 22 22 20 20 23 28 28 23 20 21 23 26 25 22 17 12 9 8 13 24 22 20 17 11 10 31 16 19 13 16 25 26 22 19
29 31 23 25 27 22 24 24 26 25 22 22 28 24 24 25 21 21 17 23 22 21 22 21 19 17 15 16 25 29 22 8 9 12 14 14 9 15 27 28 21 25 24
38 26 22 23 20 9 25 32 32 28 25 25 27 25 23 17 12 16 22 24 32 27 30 30 29 27 26 23 22 26 20 13 13 18 1 14 17 24 33 29 23 23 24
27 30 24 26 30 26 23 31 26 20 20 16 11 19 14 13 4 13 7 23 23 31 24 26 25 25 16 27 26 26 20 27 12 11 14 16 19 28 34 26 22 22 26
29 32 29 25 29 30 18 18 15 13 14 17 18 15 14 15 32 23 16 8 17 18 26 26 13 22 22 15 21 31 25 16 16 21 8 16 24 29 24 25 26 25 27
30 28 30 27 25 27 21 18 18 17 8 15 12 11 14 19 24 22 3 9 16 19 12 14 20 18 23 18 16 20 21 25 22 17 13 18 24 25 22 19 19 23 26
31 29 29 34 23 34 24 22 11 14 13 8 9 19 10 8 6 1 19 21 20 23 16 18 21 15 23 10 16 6 17 12 18 17 20 22 23 24 31 23 12 14 19
30 30 25 25 33 40 17 30 22 9 16 7 11 19 13 9 14 14 19 24 13 12 13 16 27 21 27 19 5 14 16 19 18 23 22 25 23 21 28 21 7 7 9
33 31 26 20 29 34 23 31 12 6 8 3 7 11 14 16 12 15 15 19 22 7 17 29 28 31 27 25 9 11 21 19 13 9 12 19 24 26 26 16 17 15 15
35 34 27 25 25 27 18 19 11 9 3 4 8 9 14 17 24 11 21 15 9 13 13 23 25 18 28 9 19 5 16 17 15 12 14 22 23 20 21 12 18 18 22
38 36 34 32 22 25 20 11 8 5 9 5 13 11 9 6 16 19 19 26 26 29 17 33 21 21 15 23 30 9 7 15 11 6 11 8 13 19 17 17 16 21 18
35 37 37 27 27 26 12 22 13 6 3 4 8 11 16 12 15 22 27 20 19 25 26 24 21 25 33 15 20 9 1 8 3 5 6 2 9 12 12 16 19 21 25
34 36 37 36 34 35 21 26 13 18 6 8 12 13 6 2 9 19 15 24 28 21 18 23 30 18 31 29 23 15 18 8 7 4 7 10 10 9 11 7 8 21 30
38 37 38 37 34 31 27 28 19 17 17 17 10 6 7 3 5 10 16 15 22 27 25 28 27 19 18 27 33 29 12 9 5 6 9 5 9 4 7 4 23 20 16
44 38 38 38 32 32 24 22 25 31 21 22 22 10 4 1 4 10 11 19 20 19 29 25 23 19 19 29 29 25 17 16 27 17 19 7 11 9 5 16 23 22 25
49 39 36 37 35 29 40 24 19 23 17 12 10 9 5 10 4 1 12 17 16 20 27 20 21 17 21 18 16 20 25 26 14 19 28 26 26 5 10 7 6 18 17
47 47 45 37 38 31 34 33 26 31 18 19 15 17 11 12 5 6 10 15 18 19 24 23 20 22 21 20 11 21 16 12 13 23 34 32 33 16 6 5 7 8 21
50 48 47 43 40 39 36 33 36 25 25 21 20 15 5 17 7 14 4 13 10 23 26 25 19 23 26 29 16 9 16 17 24 24 29 33 31 18 19 8 6 8 16
Wind_Direction_850mb
149 143 124 106 93 93 91 93 92 86 82 80 86 89 89 81 85 83 78 75 79 84 78 70 68 62 60 65 58 57 79 95 103 78 86 92 97 119 130 131 122 131 111
153 142 125 112 103 99 105 97 92 88 91 82 85 85 83 84 88 83 74 66 81 88 87 65 62 57 46 46 54 59 78 94 86 84 98 91 88 108 144 152 142 155 116
135 136 122 115 109 111 99 91 96 84 85 86 86 83 85 77 76 75 73 76 83 88 86 60 44 31 32 33 44 53 57 75 98 107 110 122 65 70 150 186 168 164 145
137 130 129 120 112 110 105 98 98 97 95 90 93 87 83 80 82 84 86 86 88 96 91 50 26 12 9 8 11 27 52 124 118 120 105 109 347 84 61 232 184 175 165
134 143 132 122 115 115 107 108 107 102 99 93 91 93 89 83 77 72 67 64 60 43 3 349 348 3 7 1 352 344 336 315 204 140 110 146 199 278 259 317 277 218 198
135 149 147 125 119 119 119 111 113 109 101 98 95 89 83 74 66 58 47 30 1 322 300 316 332 342 345 347 340 321 313 305 273 164 108 246 199 248 286 300 270 232 217
140 144 134 127 117 119 118 111 116 114 104 99 93 86 80 71 57 55 50 42 27 357 257 286 327 334 341 352 7 360 303 270 321 86 210 240 240 280 265 293 277 255 234
121 130 137 127 125 117 111 116 122 115 107 98 88 77 64 61 68 69 59 52 52 64 78 67 25 359 356 6 352 8 16 7 269 303 291 209 233 274 301 294 275 260 253
122 130 126 129 125 117 114 119 115 106 98 90 83 82 71 66 69 63 59 55 52 54 56 50 39 27 17 24 21 8 6 11 22 256 255 277 244 257 282 294 267 257 257
123 128 138 115 88 101 115 112 107 100 95 93 83 75 71 55 36 27 31 31 36 44 42 38 33 33 32 28 20 11 9 357 276 357 186 235 266 278 289 284 271 253 255
123 129 129 118 123 124 121 112 104 96 92 82 80 59 50 37 9 350 31 45 51 45 35 40 44 45 29 8 354 348 350 348 342 278 238 218 261 279 297 280 266 260 255
141 139 143 139 154 117 134 116 89 87 93 79 98 49 130 56 106 178 359 34 37 38 24 18 26 19 12 6 337 327 315 317 359 171 241 266 281 296 298 288 274 266 261
150 143 146 154 131 150 148 107 135 68 91 88 80 87 57 79 59 51 19 31 20 34 40 2 12 6 349 348 14 342 337 338 296 347 284 287 313 322 305 286 273 267 266
150 142 150 145 147 168 151 154 143 151 131 121 8 45 3 64 19 40 326 6 15 32 22 24 2 342 349 347 4 355 354 31 16 10 24 338 337 344 341 307 274 262 264
147 150 159 169 150 160 151 160 151 160 76 146 112 15 106 87 54 334 66 63 37 38 37 357 30 354 337 356 353 341 345 48 19 23 354 347 341 347 351 343 310 281 279
154 158 165 174 172 157 137 176 156 93 85 29 125 30 45 20 20 39 30 8 42 335 358 10 341 353 336 324 358 11 3 347 359 334 348 354 343 350 6 354 6 12 4
162 163 160 172 160 158 167 163 140 235 179 65 257 349 32 9 71 15 14 39 5 355 26 10 6 352 7 9 7 21 17 31 37 351 351 2 359 11 19 44 53 41 21
162 167 159 165 175 165 146 141 191 262 27 61 320 86 27 22 354 29 4 353 351 20 21 10 356 345 355 3 298 353 39 47 58 63 32 4 348 349 359 15 22 19 5
166 168 153 177 173 151 177 149 122 218 154 74 341 76 24 38 334 325 94 30 20 12 20 349 355 348 333 357 347 268 50 65 84 289 324 347 305 352 350 352 353 352 358
169 171 161 172 166 160 207 160 170 203 116 185 245 289 357 26 321 359 21 11 7 353 339 339 4 352 352 3 342 263 243 86 244 124 80 1 114 348 344 355 349 345 348
167 169 176 169 185 176 175 156 157 195 151 227 263 268 73 310 356 4 12 7 357 343 6 9 1 3 20 348 348 343 266 157 153 216 177 238 313 205 254 328 9 345 342
176 181 182 181 198 177 170 175 197 218 196 188 114 333 296 339 10 3 0 359 20 3 358 358 5 16 24 358 2 359 17 188 73 231 269 265 341 62 265 340 334 8 351
183 190 191 190 202 177 173 192 219 205 215 213 235 257 221 321 34 326 349 349 30 16 350 350 355 6 21 23 23 22 7 0 353 2 315 216 293 156 251 332 320 354 326
184 193 203 195 204 188 176 193 199 204 206 230 246 184 154 278 278 308 347 342 29 21 348 4 11 32 13 13 4 22 4 344 323 336 343 306 314 226 221 332 288 342 311
192 190 202 212 203 199 192 182 216 217 208 238 201 253 286 237 94 129 317 350 6 347 357 4 4 26 14 18 21 34 355 356 8 351 347 348 342 266 265 63 229 265 289
194 195 195 213 212 198 217 203 199 216 204 208 221 241 237 258 207 201 286 8 346 352 351 356 8 12 15 9 20 39 1 350 333 352 344 344 341 342 283 258 251 267 307